DW6794 Weather Reports


Display with metric or nautical units.
time (UTC)temp
F
wind
direction
speed
MPH
gust
MPH
rain 1hr
in
rain 24hr
in
rain mn
in
humidity
%
barometer
mb
20141126000400 40 267 0.0 0.0 0.00 0.00 0.00 60 1016.2
20141125235400 40 267 0.0 0.0 0.00 0.00 0.00 61 1016.2
20141125234400 39 267 0.0 0.0 0.00 0.00 0.00 60 1015.9
20141125233400 39 267 0.0 0.0 0.00 0.00 0.00 57 1015.7
20141125232400 39 267 0.0 0.0 0.00 0.00 0.00 54 1016.1
20141125231400 40 267 0.0 0.0 0.00 0.00 0.00 53 1015.8
20141125230400 40 267 0.0 0.0 0.00 0.00 0.00 52 1015.7
20141125225400 42 267 0.0 0.0 0.00 0.00 0.00 50 1015.6
20141125224400 44 267 0.0 0.0 0.00 0.00 0.00 49 1015.5
20141125223400 47 267 0.0 0.0 0.00 0.00 0.00 47 1015.5
20141125222359 49 267 0.0 0.0 0.00 0.00 0.00 46 1015.3
20141125221359 51 267 0.0 0.0 0.00 0.00 0.00 44 1015.0
20141125220400 52 266 0.0 0.0 0.00 0.00 0.00 43 1014.9
20141125215400 53 266 0.0 0.0 0.00 0.00 0.00 43 1014.9
20141125214400 54 266 0.0 0.0 0.00 0.00 0.00 42 1014.8
20141125213400 54 266 0.0 0.0 0.00 0.00 0.00 42 1014.9
20141125212400 55 267 0.0 1.0 0.00 0.00 0.00 42 1014.5
20141125211401 55 266 0.0 3.0 0.00 0.00 0.00 41 1014.5
20141125210400 55 246 0.0 3.0 0.00 0.00 0.00 42 1014.4
20141125205400 56 225 0.0 3.0 0.00 0.00 0.00 42 1014.3
20141125204400 56 223 0.0 0.0 0.00 0.00 0.00 44 1014.7
20141125203400 56 223 0.0 3.0 0.00 0.00 0.00 43 1014.7
20141125202400 56 226 0.0 1.0 0.00 0.00 0.00 44 1014.8
20141125201401 55 223 0.0 3.0 0.00 0.00 0.00 44 1014.8
20141125200400 55 223 2.0 3.0 0.00 0.00 0.00 44 1014.7
20141125195400 55 234 0.0 3.0 0.00 0.00 0.00 45 1014.7
20141125194400 55 271 1.0 3.0 0.00 0.00 0.00 45 1014.8
20141125193400 55 272 1.0 7.0 0.00 0.00 0.00 45 1014.8
20141125192401 55 273 0.0 1.0 0.00 0.00 0.00 47 1014.9
20141125191400 54 273 0.0 3.0 0.00 0.00 0.00 47 1014.9
20141125190401 54 273 1.0 6.0 0.00 0.00 0.00 47 1015.2
20141125185400 54 257 1.0 5.0 0.00 0.00 0.00 48 1015.3
20141125184401 54 232 0.0 3.0 0.00 0.00 0.00 50 1015.8
20141125183401 54 232 0.0 3.0 0.00 0.00 0.00 51 1015.8
20141125182400 53 232 1.0 5.0 0.00 0.00 0.00 51 1015.9
20141125181401 53 239 1.0 3.0 0.00 0.00 0.00 52 1015.8
20141125180401 53 233 0.0 3.0 0.00 0.00 0.00 53 1015.7
20141125175400 52 226 2.0 3.0 0.00 0.00 0.00 55 1015.8
20141125174401 52 212 2.0 3.0 0.00 0.00 0.00 56 1016.2
20141125173401 52 256 0.0 2.0 0.00 0.00 0.00 56 1016.7
20141125172401 51 255 1.0 2.0 0.00 0.00 0.00 58 1016.8
20141125171401 51 255 0.0 3.0 0.00 0.00 0.00 59 1017.0
20141125170400 51 255 2.0 5.0 0.00 0.00 0.00 60 1017.2
20141125165401 51 167 2.0 5.0 0.00 0.00 0.00 62 1017.2
20141125164401 50 166 0.0 0.0 0.00 0.00 0.00 64 1017.2
20141125163401 49 180 0.0 0.0 0.00 0.00 0.00 65 1017.7
20141125162401 49 204 0.0 0.0 0.00 0.00 0.00 67 1017.7
20141125161401 47 204 0.0 0.0 0.00 0.00 0.00 69 1017.7
20141125160401 46 204 0.0 0.0 0.00 0.00 0.00 70 1017.7
20141125155402 46 204 0.0 0.0 0.00 0.00 0.00 71 1017.8
20141125154401 45 204 0.0 0.0 0.00 0.00 0.00 71 1017.6
20141125153401 44 204 0.0 0.0 0.00 0.00 0.00 71 1017.8
20141125152402 44 204 0.0 0.0 0.00 0.00 0.00 72 1017.7
20141125151401 43 204 0.0 0.0 0.00 0.00 0.00 72 1017.4
20141125150401 42 204 0.0 0.0 0.00 0.00 0.00 73 1017.7
20141125145401 42 204 0.0 0.0 0.00 0.00 0.00 72 1017.8
20141125144401 41 205 0.0 0.0 0.00 0.00 0.00 71 1017.8
20141125143401 40 216 0.0 0.0 0.00 0.00 0.00 71 1017.7
20141125142401 39 216 0.0 0.0 0.00 0.00 0.00 70 1017.7
20141125141401 39 216 0.0 0.0 0.00 0.00 0.00 71 1017.7
20141125140402 38 216 0.0 0.0 0.00 0.00 0.00 70 1017.6
20141125135402 37 216 0.0 0.0 0.00 0.00 0.00 70 1017.4
20141125134401 37 216 0.0 0.0 0.00 0.00 0.00 70 1017.5
20141125133401 36 216 0.0 0.0 0.00 0.00 0.00 70 1017.5
20141125132401 36 216 0.0 0.0 0.00 0.00 0.00 70 1017.1
20141125131402 35 216 0.0 0.0 0.00 0.00 0.00 70 1017.0
20141125130402 35 216 0.0 0.0 0.00 0.00 0.00 70 1016.9
20141125125402 35 216 0.0 0.0 0.00 0.00 0.00 69 1016.9
20141125124401 36 216 0.0 0.0 0.00 0.00 0.00 68 1016.6
20141125123402 36 216 0.0 0.0 0.00 0.00 0.00 67 1016.6
20141125122401 35 216 0.0 0.0 0.00 0.00 0.00 67 1016.5
20141125121401 36 216 0.0 0.0 0.00 0.00 0.00 67 1016.5
20141125120402 36 216 0.0 0.0 0.00 0.00 0.00 67 1016.3
20141125115402 36 216 0.0 0.0 0.00 0.00 0.00 66 1016.0
20141125114402 37 216 0.0 0.0 0.00 0.00 0.00 66 1015.9
20141125113402 37 216 0.0 0.0 0.00 0.00 0.00 65 1015.4
20141125112402 37 216 0.0 0.0 0.00 0.00 0.00 65 1015.3
20141125111401 38 216 0.0 0.0 0.00 0.00 0.00 64 1015.4
20141125110402 39 216 0.0 0.0 0.00 0.00 0.00 63 1015.4
20141125105402 40 217 0.0 0.0 0.00 0.00 0.00 64 1015.3
20141125104402 41 216 0.0 0.0 0.00 0.00 0.00 63 1015.2
20141125103402 42 216 0.0 0.0 0.00 0.00 0.00 63 1015.2
20141125102402 42 216 0.0 0.0 0.00 0.00 0.00 63 1015.2
20141125101402 42 216 0.0 1.0 0.00 0.00 0.00 62 1015.2
20141125100402 43 216 0.0 2.0 0.00 0.00 0.00 62 1015.0
20141125095402 44 216 0.0 0.0 0.00 0.00 0.00 62 1014.8
20141125094402 44 216 0.0 0.0 0.00 0.00 0.00 61 1014.7
20141125093402 44 216 0.0 0.0 0.00 0.00 0.00 61 1014.8
20141125092403 45 216 0.0 3.0 0.00 0.00 0.00 61 1014.7
20141125091403 45 249 0.0 0.0 0.00 0.00 0.00 61 1014.6
20141125090402 46 249 0.0 3.0 0.00 0.00 0.00 60 1014.4
20141125085402 46 248 0.0 3.0 0.00 0.00 0.00 60 1014.3
20141125084402 47 250 1.0 3.0 0.00 0.00 0.00 60 1014.6
20141125083403 48 252 0.0 5.0 0.00 0.00 0.00 59 1014.6
20141125082403 48 254 3.0 6.0 0.00 0.00 0.00 59 1014.4
20141125081403 48 242 3.0 7.0 0.00 0.00 0.00 59 1014.4
20141125080403 49 254 2.0 6.0 0.00 0.00 0.00 59 1014.3
20141125075402 49 250 2.0 9.0 0.00 0.00 0.00 58 1014.3
20141125074402 50 264 4.0 8.0 0.00 0.00 0.00 58 1014.1
20141125073402 50 267 5.0 10.0 0.00 0.00 0.00 58 1014.0
20141125072402 51 251 5.0 10.0 0.00 0.00 0.00 58 1014.0
20141125071403 51 254 6.0 10.0 0.00 0.00 0.00 58 1013.9
20141125070403 51 249 7.0 12.0 0.00 0.00 0.00 58 1013.4
20141125065404 51 258 6.0 10.0 0.00 0.00 0.00 58 1013.1
20141125064403 52 248 7.0 12.0 0.00 0.00 0.00 58 1012.9
20141125063404 52 247 6.0 12.0 0.00 0.00 0.00 58 1012.8
20141125062403 52 252 6.0 12.0 0.00 0.00 0.00 58 1012.4
20141125061403 53 243 5.0 13.0 0.00 0.00 0.00 58 1012.3
20141125060403 53 245 6.0 12.0 0.00 0.00 0.00 58 1012.1
20141125055404 53 254 6.0 10.0 0.00 0.00 0.00 57 1012.0
20141125054403 54 259 8.0 13.0 0.00 0.00 0.00 57 1012.0
20141125053404 54 249 5.0 12.0 0.00 0.00 0.00 57 1012.0
20141125052404 55 256 5.0 13.0 0.00 0.00 0.00 55 1011.8
20141125051403 55 254 7.0 12.0 0.00 0.00 0.00 57 1011.7
20141125050404 56 228 2.0 7.0 0.00 0.00 0.00 57 1011.3
20141125045403 56 259 2.0 7.0 0.00 0.00 0.00 57 1011.1
20141125044404 56 238 2.0 6.0 0.00 0.00 0.00 57 1010.8
20141125043403 56 244 1.0 6.0 0.00 0.00 0.00 57 1010.7
20141125042403 56 224 2.0 8.0 0.00 0.00 0.00 58 1010.6
20141125041403 55 234 0.0 3.0 0.00 0.00 0.00 58 1010.6
20141125040404 54 256 1.0 3.0 0.00 0.00 0.00 59 1010.6
20141125035403 53 206 0.0 0.0 0.00 0.00 0.00 58 1010.6
20141125034403 53 206 0.0 2.0 0.00 0.00 0.00 58 1010.4
20141125033403 53 228 0.0 0.0 0.00 0.00 0.00 57 1010.2
20141125032403 54 229 0.0 0.0 0.00 0.00 0.00 56 1010.2
20141125031403 54 229 0.0 0.0 0.00 0.00 0.00 55 1010.2
20141125030403 55 229 0.0 0.0 0.00 0.00 0.00 55 1010.0
20141125025403 56 229 0.0 0.0 0.00 0.00 0.00 54 1009.8
20141125024403 56 229 2.0 8.0 0.00 0.00 0.00 54 1009.7
20141125023403 56 223 3.0 7.0 0.00 0.00 0.00 54 1009.5
20141125022403 56 226 0.0 0.0 0.00 0.00 0.00 53 1009.4
20141125021404 57 226 0.0 0.0 0.00 0.00 0.00 52 1009.1
20141125020404 57 227 1.0 5.0 0.00 0.00 0.00 52 1008.9
20141125015404 58 269 0.0 3.0 0.00 0.00 0.00 51 1008.8
20141125014403 58 252 3.0 10.0 0.00 0.00 0.00 52 1008.7
20141125013404 59 261 3.0 7.0 0.00 0.00 0.00 51 1008.7
20141125012404 59 195 2.0 7.0 0.00 0.00 0.00 50 1008.4
20141125011404 60 193 2.0 7.0 0.00 0.00 0.00 50 1008.3
20141125010404 60 240 2.0 8.0 0.00 0.00 0.00 50 1008.1
20141125005404 60 244 4.0 8.0 0.00 0.00 0.00 50 1007.8
20141125004404 60 229 5.0 8.0 0.00 0.00 0.00 50 1007.7
20141125003404 60 239 5.0 10.0 0.00 0.00 0.00 49 1007.3
20141125002404 61 246 1.0 5.0 0.00 0.02 0.00 48 1007.0
20141125001404 62 251 3.0 12.0 0.00 0.02 0.00 48 1006.7